Skip Page Navigation
NASA JPL Caltech
NASA Logo - Jet Propulsion Laboratory + View the NASA Portal
+ Center for Near-Earth Object Studies
JPL Home Earth Solar System Stars & Galaxies Technology
JPL Solar System Dynamics
BODIES ORBITS EPHEMERIDES TOOLS PHYSICAL DATA DISCOVERY FAQ SITE MAP
JPL Small-Body Database Browser
Search: [ help ]  
152516 (2006 AG70)
Classification: Main-belt Asteroid          SPK-ID: 2152516
Ephemeris | Orbit Diagram | Orbital Elements | Mission Design | Physical Parameters | Discovery Circumstances | Close-Approach Data ]

[ show orbit diagram ]
Orbital Elements at Epoch 2459200.5 (2020-Dec-17.0) TDB
Reference: JPL 17 (heliocentric ecliptic J2000)
 Element Value Uncertainty (1-sigma)   Units 
e .08107277686751611 4.7688e-08  
a 3.03946936252809 2.7154e-08 au
q 2.793051141104198 1.4032e-07 au
i 1.288757020654888 5.9476e-06 deg
node 209.1040183093632 0.00022549 deg
peri 34.81187909143534 0.00022877 deg
M 182.8548353140638 4.1329e-05 deg
tp 2460152.905475804195
(2023-Jul-27.40547580)
0.00022716 TDB
period 1935.508496082201
5.30
2.5937e-05
7.101e-08
d
yr
n .1859976335566087 2.4925e-09 deg/d
Q 3.285887583951981 2.9355e-08 au
  Orbit Determination Parameters
   # obs. used (total)      327  
   data-arc span      8120 days (22.23 yr)  
   first obs. used      1998-10-24  
   last obs. used      2021-01-16  
   planetary ephem.      DE441  
   SB-pert. ephem.      SB441-N16  
   condition code      0  
   norm. resid. RMS      .58322  
   source      ORB  
   producer      Otto Matic  
   solution date      2021-Apr-13 19:27:28  

Additional Information
 Earth MOID = 1.77852 au 
 Jupiter MOID = 1.71829 au 
 T_jup = 3.235 
[ show covariance matrix ]

Ephemeris | Orbit Diagram | Orbital Elements | Mission Design | Physical Parameters | Discovery Circumstances | Close-Approach Data ]

Physical Parameter Table
Parameter Symbol Value Units Sigma Reference Notes
absolute magnitude H 15.8   n/a MPO453985  

152516 (2006 AG70)          Discovered 2006-Jan-06 by Spacewatch at Kitt Peak
Reference: 20070303/Numbers.arcLast Updated: 2007-03-07

[ show close-approach data ]
Ephemeris | Orbit Diagram | Orbital Elements | Mission Design | Physical Parameters | Discovery Circumstances | Close-Approach Data ]
ABOUT SSD CREDITS/AWARDS PRIVACY/COPYRIGHT GLOSSARY LINKS
FirstGov 2021-Apr-19 08:52 UT
(server date/time)  
NASA Home Page
Site Manager:   Ryan S. Park
Webmaster  Alan B. Chamberlin